Weather in Novotazlarovo

Russia / Republic of Bashkortostan     55°50′45″N   55°34′13″E
temp.,
°C
wind,
m/s
gust,
m/s
humid.,
%
clouds,
%
prec.,
mm/h
press.,
hPa
HPBL,
m
4 march, thu
thu423:00−3sw4996100 1.4 1000353
02:00−5wnw61095100 0.9 1000523
05:00−11w499798 1.1 1001217
08:00−12wsw4997100 0.1 1001234
11:00−8sw5894100 0.1 1001379
14:00−6ssw61093100 0.2 999638
17:00−4ssw71194100 0.6 998669
20:00−5ssw91694100 1.8 995851
5 march, fri
fri523:00−2sw101890100 2.7 992831
02:00−4wsw8178367 1.2 991739
05:00−6w8169066 1.3 994604
08:00−8w61393100 0.0 997476
11:00−8w5992100 0.1 999372
14:00−7w479198 0.0 1001388
17:00−7w478996 0.0 1003430
20:00−12wnw34910 0.0 100659
6 march, sat
sat623:00−14w33900 0.0 100923
02:00−15sw34940 0.0 101049
05:00−17sw44910 0.0 101160
08:00−17ssw449413 0.0 101170
11:00−12sw479556 0.1 1011301
14:00−9sw4692100 0.3 1010501
17:00−8w3591100 0.5 1010529
20:00−14w239792 0.1 101020
7 march, sun
sun723:00−16nw229782 0.1 101020
02:00−17nnw229894 0.0 101020
05:00−19nw2210097 0.1 101021
08:00−21wnw2310099 0.0 101121
11:00−19w359699 0.1 1012229
14:00−15wsw349192 0.0 1012370
17:00−14sw469196 0.0 1013420
20:00−18s459650 0.0 101280
8 march, mon
mon823:00−18s5129541 0.0 1012219
02:00−16s8149394 0.1 1008421
05:00−14s9169497 0.8 1005536
08:00−12s91593100 1.1 1001687
11:00−7s81494100 2.6 1000887
14:00−7wsw9147470 0.9 10011171
17:00−6sw5108135 0.9 1004748
20:00−11s46865 0.0 100572